{"data":{"norad_id":63664,"intl_designator":"2025-085A","name":"STARLINK-11651 [DTC]","alt_names":[],"object_type":"PAYLOAD","status":"ACTIVE","operator":null,"country":"US","launch_date":"2025-04-28","launch_site_code":"AFETR","launch_vehicle":null,"mission":null,"orbit_class":"UNKNOWN","rcs_meters":null,"size_class":null,"mass_kg":null,"dimensions":null,"purposes":["comms"],"wikipedia_slug":null,"has_3d_model":false,"image_url":null,"decayed_at":null,"tle_current":{"epoch":"2026-09-20T19:30:22.515840Z","epoch_age_seconds":126011,"freshness":"FRESH","line1":"1 63664U 25085A   26263.81276060  .00167461  00000+0  12810-2 0  9992","line2":"2 63664  42.9990 181.9215 0001228 282.7275  77.3455 15.70866637 80944","mean_motion":15.70866637,"eccentricity":0.0001228,"inclination_deg":42.999,"raan_deg":181.9215,"arg_perigee_deg":282.7275,"mean_anomaly_deg":77.3455,"bstar":0.001281,"rev_number":8094,"period_min":91.669144030589,"perigee_km":355.5919256451,"apogee_km":357.24593258128,"semimajor_km":6734.5559291132,"source":"CELESTRAK","updated_at":"2026-09-21T09:00:35.056870Z"}}}